Regional Weather Roundup
Issued by NWS

Home | Current Version | Previous Version | Text Only | Print | Product List | Glossary On
Versions: 1 2 3 4 5 6 7 8 9 10 11 12 13 14 15 16 17 18 19 20 21 22 23 24 25 26 27 28 29 30 31 32 33 34 35 36 37 38 39 40 41 42 43 44 45 46 47 48 49 50
000
ASUS43 KMPX 201801
RWRMN
WEATHER ROUNDUP FOR MINNESOTA
NATIONAL WEATHER SERVICE TWIN CITIES/CHANHASSEN MN
100 PM CDT WED AUG 20 2014


NOTE: "FAIR" INDICATES FEW OR NO CLOUDS BELOW 12,000 FEET WITH NO
SIGNIFICANT WEATHER AND/OR OBSTRUCTIONS TO VISIBILITY. N/A MEANS
CURRENT SKY AND/OR WEATHER CONDITIONS ARE NOT AVAILABLE.

MNZ060>063-068>070-201900-
   Twin Cities Metro

CITY           SKY/WX    TMP DP  RH WIND       PRES   REMARKS
TWIN CITIES    MOSUNNY   79  65  62 S7G20     29.87R
6HR MIN TEMP:  66; 6HR MAX TEMP:  79;

ST PAUL        MOSUNNY   79  65  62 SE8       29.86S
CRYSTAL        MOSUNNY   77  64  64 SE12      29.85R
BLAINE         PTSUNNY   79  68  69 E8        29.87
LAKEVILLE      PTSUNNY   77  68  73 E6        29.87R
EDEN PRAIRIE   MOSUNNY   82  65  56 VRB6      29.86R
6HR MIN TEMP:  66; 6HR MAX TEMP:  82;

SOUTH ST PAUL  MOSUNNY   78  65  63 SE5       29.87R
LAKE ELMO      PTSUNNY   77  64  65 E6        29.88R
$$
MNZ001>005-007-008-013>017-022>024-027-028-201900-
   Northwest Minnesota

CITY           SKY/WX    TMP DP  RH WIND       PRES   REMARKS
BEMIDJI        PTSUNNY   73  62  67 SE10      29.86R
HALLOCK        SUNNY     81  66  61 SE13      29.78R
ROSEAU         SUNNY     79  64  61 SE6       29.82S
WARROAD        MOSUNNY   75  66  73 E10       29.83S
THIEF RVR FALL MOSUNNY   79  64  61 S9        29.81S
CROOKSTON      PTSUNNY   81  64  57 S10       29.80R
FOSSTON        MOSUNNY   79  64  61 S8        29.83S
DETROIT LAKES  MOSUNNY   77  63  61 SE9       29.84S
MOORHEAD       MOSUNNY   81  70  69 SE10      29.79F
PARK RAPIDS    MOSUNNY   76  62  62 SE10      29.85R
MAHNOMEN       FAIR      76  66  70 S7        29.82S
$$
MNZ006-009>011-018-025>026-201900-
   North Central Minnesota

CITY           SKY/WX    TMP DP  RH WIND       PRES   REMARKS
BAUDETTE       PTSUNNY   76  62  62 SE10      29.85F
FLAG ISLAND    SUNNY     72  61  68 SE8       29.83F
INTL FALLS     PTSUNNY   72  58  61 E6        29.88R
6HR MIN TEMP:  53; 6HR MAX TEMP:  74;

WASKISH        CLOUDY    75  64  69 CALM      29.85F
BIG FORK       MOSUNNY   73  59  60 CALM      29.88F
LONGVILLE      PTSUNNY   73  63  68 SE7       29.87R
GRAND RAPIDS   CLOUDY    70  59  68 E7        29.88F
CRANE LAKE     CLOUDY    68  59  73 SE3       29.91R
ORR            MOSUNNY   72  55  56 CALM      29.87F
COOK           CLOUDY    72  59  64 E6        29.89F
WALKER         FAIR      72  63  73 E8        29.86R
$$
MNZ012-019>021-037-201900-
   Northeast Minnesota

CITY           SKY/WX    TMP DP  RH WIND       PRES   REMARKS
DULUTH         CLOUDY    67  58  72 S5        29.90F
6HR MIN TEMP:  60; 6HR MAX TEMP:  68;

ELY            CLOUDY    68  59  73 N3        29.90S
HIBBING        CLOUDY    72  58  61 CALM      29.89F
EVELETH        CLOUDY    70  59  68 S5        29.91S
DULUTH HARBOR  CLOUDY    70  63  78 S3        29.90S
TWO HARBORS    CLOUDY    66  61  82 S3        29.89S
SILVER BAY     SUNNY     66  63  88 SE6       29.89S
GRAND MARAIS     N/A     65  60  84 CALM      29.88S
G MARAIS ARPRT PTSUNNY   64  55  72 N6        29.93S
$$
MNZ029>031-032-039>041-046>048-054>057-064-201900-
   West Central Minnesota

CITY           SKY/WX    TMP DP  RH WIND       PRES   REMARKS
FERGUS FALLS   PTSUNNY   79  63  57 SE12      29.80S
WHEATON        CLOUDY    75  68  78 SE9       29.82S
MORRIS         PTSUNNY   82  66  57 S16       29.81S
ALEXANDRIA     PTSUNNY   79  66  64 SE10      29.86R
ELBOW LAKE     FAIR      79  67  66 SE12      29.82S
WADENA         PTSUNNY   75  64  69 SE7       29.84S
GLENWOOD       MOSUNNY   79  66  65 E9        29.85F
APPLETON       CLOUDY    82  66  57 SE8       29.81F
BENSON         PTSUNNY   79  68  69 S12       29.83S
ORTONVILLE     CLOUDY    79  66  65 SE8       29.80F
MADISON        CLOUDY    82  70  65 SE9       29.81F
WILLMAR        FAIR      79  66  65 SE9       29.86S
$$
MNZ033>034-036-042>043-049>051-058-059-201900-
   Central Minnesota

CITY           SKY/WX    TMP DP  RH WIND       PRES   REMARKS
ST CLOUD       MOSUNNY   81  65  58 SE8       29.86R
6HR MIN TEMP:  63; 6HR MAX TEMP:  81;

SAUK CENTRE    FAIR      78  64  61 SE8       29.85S
PAYNESVILLE    MOSUNNY   77  64  64 E9        29.86S
AITKIN         MOSUNNY   73  63  68 CALM      29.87R
PINE RIVER     MOSUNNY   73  64  73 SE6       29.90R
BRAINERD       MOSUNNY   73  63  70 NE8       29.86F
STAPLES        MOSUNNY   75  63  64 E6        29.84F
LONG PRAIRIE   FAIR      73  64  73 SE9       29.87R
LITTLE FALLS   MOSUNNY   75  61  60 SE7       29.86R
LITCHFIELD     MOSUNNY   81  68  65 SE8       29.86S
BUFFALO        MOSUNNY   80  63  56 E7        29.87R
MAPLE LAKE     MOSUNNY   80  68  66 SE7       29.87R
$$
MNZ037-044-045-052-053-201900-
   East Central Minnesota

CITY           SKY/WX    TMP DP  RH WIND       PRES   REMARKS
PRINCETON      MOSUNNY   79  64  61 E7        29.86S
MORA           SUNNY     72  61  68 E5        29.89F
CAMBRIDGE      MOSUNNY   77  63  61 NE5       29.85S
RUSH CITY      MOSUNNY   73  63  71 E5        29.87F
MOOSE LAKE     CLOUDY    72  59  64 CALM      29.86F
HINCKLEY       CLOUDY    72  63  73 E6        29.88F
CLOQUET        CLOUDY    68  57  68 SE5       29.89F
MCGREGOR       PTSUNNY   72  61  68 CALM      29.88S
$$
MNZ071>073-080-081-089-090-097-098-201900-
   Southwest Minnesota

CITY           SKY/WX    TMP DP  RH WIND       PRES   REMARKS
MONTEVIDEO     PTSUNNY   82  70  65 S8        29.82F
GRANITE FALLS  MOSUNNY   80  68  65 SE10      29.83F
CANBY          CLOUDY    80  66  62 SE13      29.82F
MARSHALL       PTSUNNY   81  64  57 SE16      29.82S
REDWOOD FALLS  SUNNY     82  66  58 SE13      29.83F
OLIVIA         MOSUNNY   79  64  61 SE10      29.84S
PIPESTONE      PTSUNNY   75  68  78 S10       29.84F
WINDOM         MOSUNNY   77  66  69 SE13      29.86R
WORTHINGTON    CLOUDY    75  16  10 S9        29.87S
JACKSON        PTSUNNY   77  64  65 S10       29.88R
TRACY          MOSUNNY   82  67  60 SE12      29.84S
SLAYTON        PTSUNNY   76  68  76 SE12      29.87R
$$
MNZ065>067-074>077-082>085-091>093-201900-
   South Central Minnesota

CITY           SKY/WX    TMP DP  RH WIND       PRES   REMARKS
MANKATO        PTSUNNY   79  66  65 SE9       29.86S
NEW ULM        PTSUNNY   79  70  73 SE9       29.85S
ST JAMES       PTSUNNY   82  66  57 SE8       29.86S
FAIRMONT       CLOUDY    79  64  61 SE10      29.86S
GLENCOE        MOSUNNY   82  65  57 SE7       29.86R
FARIBAULT      PTSUNNY   84  63  48 S7        29.88R
OWATONNA       PTSUNNY   81  64  57 S6        29.88R
WASECA         CLOUDY    77  61  57 S6        29.89R
ALBERT LEA     CLOUDY    79  66  65 S6        29.87R
$$
MNZ078>079-086>088-094>096-201900-
   Southeast Minnesota

CITY           SKY/WX    TMP DP  RH WIND       PRES   REMARKS
ROCHESTER      PTSUNNY   78  66  66 SE7       29.88S
6HR MIN TEMP:  60; 6HR MAX TEMP:  79;

RED WING       PTSUNNY   77  64  65 SE7       29.86S
STANTON        PTSUNNY   79  66  64 E6        29.86R
DODGE CENTER   PTSUNNY   77  66  69 SE5       29.88R
WINONA         MOSUNNY   77  66  69 CALM      29.86F
AUSTIN         CLOUDY    79  68  69 SE7       29.87R
PRESTON        PTSUNNY   79  71  75 S9        29.88F
$$
ABBREVIATIONS USED IN REMARKS
   TC - TEMPERATURES IN CELSIUS
  WCI - WIND CHILL INDEX
   HX - HEAT INDEX
  VSB - VISIBILITY
$$



USA.gov is the U.S. government's official web portal to all federal, state and local government web resources and services.